CAPE
0 0 0 0 0 0 0 0 0 0 0 0 0 0 0 0 0 0 0 0 0 0 0 21 118 111 90 42 96 18 75 5 0 75 104 151 98 95 77 7 59 85 63 19 13
0 0 0 0 0 0 0 0 0 0 0 0 0 0 0 1 0 0 0 0 0 0 0 99 161 77 28 212 168 48 0 0 23 74 26 92 227 33 27 46 70 68 24 0 0
0 0 0 0 0 0 0 0 0 0 0 0 0 0 0 0 0 0 0 0 0 0 0 22 77 6 82 418 229 89 0 50 77 66 90 97 91 42 67 31 21 1 16 0 0
0 0 0 0 0 0 0 0 0 0 0 0 0 0 0 0 0 0 0 0 0 0 0 0 39 60 591 276 160 137 74 47 33 47 63 106 60 56 59 31 23 0 33 11 0
0 0 0 0 0 0 0 0 0 0 0 0 0 0 0 0 0 0 16 0 0 0 0 54 56 89 460 387 319 73 98 43 5 18 74 168 193 187 65 28 26 0 24 26 0
0 0 0 0 0 0 0 0 0 0 0 0 0 0 0 0 0 0 0 0 0 0 0 41 33 16 462 369 286 242 43 94 51 29 165 202 138 69 16 19 40 23 3 4 6
0 0 0 0 0 0 0 0 0 0 0 0 1 0 0 0 0 0 0 0 0 0 14 33 19 8 451 405 286 153 118 191 148 84 107 87 77 72 189 22 31 29 19 35 113
0 0 0 0 0 0 0 0 0 0 0 0 0 0 0 0 0 0 0 0 0 0 13 20 8 0 375 239 189 291 137 120 162 107 49 53 44 149 182 59 41 31 59 105 206
0 0 0 0 0 0 0 0 0 0 0 0 0 0 0 0 0 0 0 0 0 0 0 15 18 288 246 151 63 116 26 71 254 192 94 37 37 85 159 111 43 58 95 143 195
0 0 0 0 0 0 0 0 0 0 0 0 0 0 0 0 0 0 0 0 0 0 0 0 0 393 221 84 18 8 15 6 28 387 199 10 10 68 121 166 165 48 91 116 147
0 0 0 0 0 0 0 0 0 0 0 0 0 0 0 0 0 0 0 0 0 0 0 0 0 1 177 202 152 109 14 30 123 602 341 95 0 10 82 90 182 137 45 136 149
0 0 0 0 0 0 0 0 0 0 0 0 0 0 0 0 0 0 0 0 0 0 0 0 0 0 0 0 0 65 58 46 56 589 549 410 225 81 91 38 128 198 177 69 207
0 0 0 0 0 0 0 0 0 0 0 0 0 0 0 0 0 0 0 0 0 0 0 0 0 9 5 4 42 87 112 114 50 226 415 320 234 311 128 94 45 136 159 234 69
0 0 0 0 0 0 0 0 0 0 0 0 0 0 0 0 0 0 0 0 0 0 0 0 0 2 1 1 0 1 82 170 498 310 41 341 51 132 231 162 118 53 89 114 200
0 0 0 0 0 0 0 0 0 0 0 0 0 0 0 0 0 0 0 0 0 0 0 0 0 0 0 2 0 0 49 147 546 249 268 299 174 108 174 196 141 83 33 65 130
0 0 0 0 0 0 0 0 0 0 0 0 0 0 0 0 0 0 0 0 0 0 0 0 0 0 0 4 14 48 153 230 361 257 33 63 253 51 193 177 144 100 21 35 87
0 0 0 0 0 0 0 0 0 0 0 0 0 0 0 0 0 0 0 0 0 0 0 0 0 0 0 0 1 81 82 25 109 104 10 1 267 167 187 343 318 240 144 16 35
0 0 0 0 0 0 0 0 0 0 0 0 0 0 0 0 0 0 0 0 0 0 0 0 0 0 0 0 0 0 1 0 0 0 0 66 21 101 191 302 436 287 209 40 14
0 0 0 0 0 0 0 0 0 0 0 0 0 0 0 0 0 0 0 0 0 0 0 0 0 0 0 0 0 0 0 0 0 0 0 11 283 185 152 123 200 156 193 144 33
0 0 0 0 0 0 0 0 0 0 0 0 0 0 0 0 0 0 0 0 0 0 0 0 0 0 0 0 0 0 0 0 0 0 0 54 49 85 0 0 22 85 293 183 128
0 0 0 0 0 0 0 0 0 0 0 0 0 0 0 0 0 1 0 0 0 0 1 0 1 0 2 12 0 0 9 0 24 31 12 6 21 41 14 0 0 20 65 248 150
0 0 0 0 0 0 0 0 0 0 0 0 0 0 0 0 0 0 0 0 0 0 0 0 0 0 4 10 10 2 0 6 32 30 46 34 5 1 7 5 25 125 158 327 288
0 0 0 0 0 0 0 0 0 0 0 0 0 0 0 0 0 0 0 0 3 3 0 0 0 0 0 13 23 18 3 1 31 43 25 6 0 5 165 99 511 520 433 334 209
0 0 0 0 0 0 0 0 0 0 0 0 0 0 0 0 0 0 2 0 0 0 5 0 0 0 0 3 1 1 29 22 8 10 13 5 0 45 324 506 504 397 404 300 344
0 0 0 0 0 0 0 0 0 0 0 0 0 0 0 0 0 0 0 0 0 148 0 0 0 5 22 32 21 15 20 12 5 5 30 0 10 17 238 433 438 370 281 369 420
0 0 0 0 0 0 0 0 0 0 0 0 0 0 0 0 0 0 0 0 0 0 0 0 0 12 22 33 22 8 0 15 23 13 4 0 4 0 157 407 355 415 267 334 394
0 0 0 0 0 0 0 0 0 0 0 0 0 0 0 0 0 0 0 0 0 0 0 0 25 40 17 24 14 0 8 0 11 28 26 0 0 62 196 319 267 327 263 172 203
CIN
-0 -0 -0 -0 -0 -0 -0 -0 -0 -0 -0 -0 -0 -0 -0 -0 -0 -0 -0 -0 -0 -0 -0 -7 -37 -23 -11 -56 -23 -28 -72 -13 -0 -5 -7 -45 -18 -55 -100 -6 -120 -79 -185 -144 -123
-0 -0 -0 -0 -0 -0 -0 -0 -0 -0 -0 -0 -0 -0 -0 -0 -0 -0 -0 -0 -0 -0 -0 -41 -16 -17 -21 -53 -35 -5 -0 -0 -68 -13 -12 -47 -36 -54 -91 -100 -129 -189 -158 -0 -73
-0 -0 -0 -0 -0 -0 -0 -0 -0 -0 -0 -0 -0 -0 -0 -0 -0 -0 -0 -0 -0 -0 -0 -34 -14 -3 -47 -53 -80 -83 -0 -60 -88 -23 -47 -88 -16 -2 -78 -126 -179 -13 -228 -0 -0
-0 -0 -0 -0 -0 -0 -0 -0 -0 -0 -0 -0 -0 -0 -0 -0 -0 -0 -0 -0 -0 -0 -0 -1 -15 -11 -43 -107 -144 -104 -74 -59 -74 -91 -66 -41 -89 -51 -81 -48 -169 -0 -136 -88 -0
-0 -0 -0 -0 -0 -0 -0 -0 -0 -0 -0 -0 -0 -0 -0 -0 -0 -0 -339 -0 -0 -0 -0 -9 -4 -38 -36 -103 -100 -134 -88 -61 -90 -56 -73 -70 -48 -52 -38 -83 -172 -0 -62 -70 -0
-0 -0 -0 -0 -0 -0 -0 -0 -0 -0 -0 -0 -0 -0 -0 -0 -0 -0 -0 -0 -0 -0 -0 -4 -2 -5 -89 -83 -83 -102 -26 -83 -65 -86 -32 -36 -31 -14 -11 -89 -158 -202 -26 -176 -149
-0 -0 -0 -0 -0 -0 -0 -0 -0 -0 -0 -0 -0 -0 -0 -0 -0 -0 -0 -0 -0 -0 -10 -2 -11 -11 -74 -99 -99 -114 -66 -11 -23 -25 -42 -58 -8 -24 -36 -81 -115 -157 -80 -29 -152
-0 -0 -0 -0 -0 -0 -0 -0 -0 -0 -0 -0 -0 -0 -0 -0 -0 -0 -0 -0 -0 -0 -4 -1 -8 -0 -26 -103 -70 -58 -56 -29 -28 -44 -38 -21 -12 -29 -65 -32 -86 -92 -96 -115 -136
-0 -0 -0 -0 -0 -0 -0 -0 -0 -0 -0 -0 -0 -0 -0 -0 -0 -0 -0 -0 -0 -0 -0 -5 -10 -75 -112 -63 -60 -76 -80 -64 -34 -61 -50 -7 -13 -16 -89 -37 -56 -56 -74 -102 -125
-0 -0 -0 -0 -0 -0 -0 -0 -0 -0 -0 -0 -0 -0 -0 -0 -0 -0 -0 -0 -0 -0 -0 -0 -0 -42 -41 -52 -35 -48 -5 -29 -93 -57 -55 -45 -19 -12 -137 -82 -37 -70 -75 -75 -102
-0 -0 -0 -0 -0 -0 -0 -0 -0 -0 -0 -0 -0 -0 -0 -0 -0 -0 -0 -0 -0 -0 -0 -0 -0 -0 -44 -44 -39 -54 -43 -49 -128 -67 -60 -65 -0 -79 -44 -75 -76 -98 -88 -96 -104
-0 -0 -0 -0 -0 -0 -0 -0 -0 -0 -0 -0 -0 -0 -0 -0 -0 -0 -0 -0 -0 -0 -0 -0 -0 -0 -0 -0 -0 -107 -62 -103 -124 -91 -46 -61 -61 -51 -100 -71 -19 -91 -89 -77 -98
-0 -0 -0 -0 -0 -0 -0 -0 -0 -0 -0 -0 -0 -0 -0 -0 -0 -0 -0 -0 -0 -0 -0 -0 -0 -1 -1 -6 -119 -121 -79 -34 -46 -141 -83 -71 -67 -79 -142 -125 -73 -56 -81 -89 -107
-0 -0 -0 -0 -0 -0 -0 -0 -0 -0 -0 -0 -0 -0 -0 -0 -0 -0 -0 -0 -0 -0 -0 -0 -0 -2 -0 -0 -0 -29 -121 -32 -81 -104 -68 -82 -24 -78 -109 -132 -107 -39 -31 -51 -114
-0 -0 -0 -0 -0 -0 -0 -0 -0 -0 -0 -0 -0 -0 -0 -0 -0 -0 -0 -0 -0 -0 -0 -0 -0 -0 -0 -1 -0 -0 -117 -76 -85 -34 -58 -81 -56 -55 -107 -101 -118 -103 -49 -43 -66
-0 -0 -0 -0 -0 -0 -0 -0 -0 -0 -0 -0 -0 -0 -0 -0 -0 -0 -0 -0 -0 -0 -0 -0 -0 -0 -0 -3 -76 -83 -113 -104 -83 -29 -16 -42 -56 -46 -83 -77 -80 -40 -30 -77 -185
-0 -0 -0 -0 -0 -0 -0 -0 -0 -0 -0 -0 -0 -0 -0 -0 -0 -0 -0 -0 -0 -0 -0 -0 -0 -0 -0 -0 -20 -71 -82 -35 -45 -19 -23 -6 -68 -44 -186 -166 -132 -118 -50 -33 -209
-0 -0 -0 -0 -0 -0 -0 -0 -0 -0 -0 -0 -0 -0 -0 -0 -0 -0 -0 -0 -0 -0 -0 -0 -0 -0 -0 -0 -0 -0 -2 -0 -0 -0 -0 -77 -42 -73 -106 -125 -176 -180 -87 -21 -227
-0 -0 -0 -0 -0 -0 -0 -0 -0 -0 -0 -0 -0 -0 -0 -0 -0 -0 -0 -0 -0 -0 -0 -0 -0 -0 -0 -0 -0 -0 -0 -0 -0 -0 -0 -34 -104 -158 -202 -131 -121 -122 -85 -59 -238
-0 -0 -0 -0 -0 -0 -0 -0 -0 -0 -0 -0 -0 -0 -0 -0 -0 -0 -0 -0 -0 -0 -0 -0 -0 -0 -0 -0 -0 -0 -0 -0 -0 -0 -0 -42 -59 -74 -0 -0 -123 -96 -94 -106 -83
-0 -0 -0 -0 -0 -0 -0 -0 -0 -0 -0 -0 -0 -0 -0 -0 -0 -2 -0 -0 -0 -0 -1 -0 -4 -0 -53 -86 -0 -0 -38 -0 -35 -44 -9 -14 -33 -117 -131 -0 -0 -95 -125 -179 -93
-0 -0 -0 -0 -0 -0 -0 -0 -0 -0 -0 -0 -0 -0 -0 -0 -0 -0 -0 -0 -0 -0 -0 -0 -0 -0 -74 -45 -33 -180 -0 -74 -30 -54 -38 -38 -24 -18 -230 -346 -150 -121 -147 -143 -103
-0 -0 -0 -0 -0 -0 -0 -0 -0 -0 -0 -0 -0 -0 -0 -0 -0 -0 -1 -0 -3 -1 -0 -0 -0 -0 -0 -47 -29 -17 -20 -47 -71 -59 -44 -28 -0 -34 -225 -229 -140 -138 -135 -107 -92
-0 -0 -0 -0 -0 -0 -0 -0 -0 -0 -0 -0 -0 -0 -0 -0 -0 -0 -1 -0 -0 -0 -170 -152 -0 -0 -0 -40 -40 -39 -5 -4 -8 -103 -74 -67 -0 -121 -154 -146 -136 -126 -117 -110 -92
-0 -0 -0 -0 -0 -0 -0 -0 -0 -0 -0 -0 -0 -0 -0 -0 -0 -0 -0 -0 -0 -176 -0 -0 -0 -78 -85 -91 -83 -69 -107 -139 -140 -86 -136 -0 -126 -91 -96 -120 -102 -116 -131 -94 -70
-0 -0 -0 -0 -0 -0 -0 -0 -0 -0 -0 -0 -0 -0 -0 -0 -0 -0 -0 -0 -0 -0 -0 -0 -1 -36 -75 -85 -76 -55 -0 -150 -159 -154 -80 -0 -88 -0 -130 -77 -84 -70 -76 -62 -42
-0 -0 -0 -0 -0 -0 -0 -0 -0 -0 -0 -0 -0 -0 -0 -0 -0 -0 -0 -0 -0 -0 -0 -0 -60 -38 -13 -69 -66 -0 -11 -0 -97 -91 -90 -15 -0 -177 -89 -48 -81 -71 -73 -78 -48
Wind_Speed
nan nan nan nan nan nan nan nan nan nan nan nan nan nan nan nan nan nan nan nan nan nan nan nan 8 7 nan nan nan nan nan nan nan nan 6 11 nan nan nan nan nan nan nan nan nan
nan nan nan nan nan nan nan nan nan nan nan nan nan nan nan nan nan nan nan nan nan nan nan nan 6 nan nan 6 10 nan nan nan nan nan nan nan 5 nan nan nan nan nan nan nan nan
nan nan nan nan nan nan nan nan nan nan nan nan nan nan nan nan nan nan nan nan nan nan nan nan nan nan nan 7 13 nan nan nan nan nan nan nan nan nan nan nan nan nan nan nan nan
nan nan nan nan nan nan nan nan nan nan nan nan nan nan nan nan nan nan nan nan nan nan nan nan nan nan 8 3 8 8 nan nan nan nan nan 2 nan nan nan nan nan nan nan nan nan
nan nan nan nan nan nan nan nan nan nan nan nan nan nan nan nan nan nan nan nan nan nan nan nan nan nan 5 9 6 nan nan nan nan nan nan 8 9 13 nan nan nan nan nan nan nan
nan nan nan nan nan nan nan nan nan nan nan nan nan nan nan nan nan nan nan nan nan nan nan nan nan nan 8 6 7 7 nan nan nan nan 3 4 6 nan nan nan nan nan nan nan nan
nan nan nan nan nan nan nan nan nan nan nan nan nan nan nan nan nan nan nan nan nan nan nan nan nan nan 10 9 4 11 6 10 12 nan 15 nan nan nan 12 nan nan nan nan nan 6
nan nan nan nan nan nan nan nan nan nan nan nan nan nan nan nan nan nan nan nan nan nan nan nan nan nan 10 6 7 8 4 5 12 14 nan nan nan 18 12 nan nan nan nan 17 13
nan nan nan nan nan nan nan nan nan nan nan nan nan nan nan nan nan nan nan nan nan nan nan nan nan 11 11 12 nan 12 nan nan 12 15 nan nan nan nan 12 17 nan nan nan 16 6
nan nan nan nan nan nan nan nan nan nan nan nan nan nan nan nan nan nan nan nan nan nan nan nan nan 10 16 nan nan nan nan nan nan 16 14 nan nan nan 10 15 12 nan nan 11 7
nan nan nan nan nan nan nan nan nan nan nan nan nan nan nan nan nan nan nan nan nan nan nan nan nan nan 6 4 7 7 nan nan 7 5 9 nan nan nan nan nan 14 14 nan 11 10
nan nan nan nan nan nan nan nan nan nan nan nan nan nan nan nan nan nan nan nan nan nan nan nan nan nan nan nan nan nan nan nan nan 8 6 8 9 nan nan nan 11 19 6 nan 7
nan nan nan nan nan nan nan nan nan nan nan nan nan nan nan nan nan nan nan nan nan nan nan nan nan nan nan nan nan nan 9 10 nan 4 4 4 11 4 6 nan nan 12 8 5 nan
nan nan nan nan nan nan nan nan nan nan nan nan nan nan nan nan nan nan nan nan nan nan nan nan nan nan nan nan nan nan nan 8 13 11 nan 9 nan 9 4 1 2 nan nan 3 11
nan nan nan nan nan nan nan nan nan nan nan nan nan nan nan nan nan nan nan nan nan nan nan nan nan nan nan nan nan nan nan 8 15 18 14 11 14 12 12 3 4 nan nan nan 4
nan nan nan nan nan nan nan nan nan nan nan nan nan nan nan nan nan nan nan nan nan nan nan nan nan nan nan nan nan nan 22 23 22 15 nan nan 18 nan 15 11 12 10 nan nan nan
nan nan nan nan nan nan nan nan nan nan nan nan nan nan nan nan nan nan nan nan nan nan nan nan nan nan nan nan nan nan nan nan 21 19 nan nan 26 14 18 16 17 12 9 nan nan
nan nan nan nan nan nan nan nan nan nan nan nan nan nan nan nan nan nan nan nan nan nan nan nan nan nan nan nan nan nan nan nan nan nan nan nan nan 11 11 14 15 13 15 nan nan
nan nan nan nan nan nan nan nan nan nan nan nan nan nan nan nan nan nan nan nan nan nan nan nan nan nan nan nan nan nan nan nan nan nan nan nan 16 14 14 18 16 21 17 20 nan
nan nan nan nan nan nan nan nan nan nan nan nan nan nan nan nan nan nan nan nan nan nan nan nan nan nan nan nan nan nan nan nan nan nan nan nan nan nan nan nan nan nan 18 14 14
nan nan nan nan nan nan nan nan nan nan nan nan nan nan nan nan nan nan nan nan nan nan nan nan nan nan nan nan nan nan nan nan nan nan nan nan nan nan nan nan nan nan nan 15 15
nan nan nan nan nan nan nan nan nan nan nan nan nan nan nan nan nan nan nan nan nan nan nan nan nan nan nan nan nan nan nan nan nan nan nan nan nan nan nan nan nan 10 9 10 20
nan nan nan nan nan nan nan nan nan nan nan nan nan nan nan nan nan nan nan nan nan nan nan nan nan nan nan nan nan nan nan nan nan nan nan nan nan nan 24 nan 11 16 15 19 22
nan nan nan nan nan nan nan nan nan nan nan nan nan nan nan nan nan nan nan nan nan nan nan nan nan nan nan nan nan nan nan nan nan nan nan nan nan nan 28 20 15 17 18 22 27
nan nan nan nan nan nan nan nan nan nan nan nan nan nan nan nan nan nan nan nan nan 25 nan nan nan nan nan nan nan nan nan nan nan nan nan nan nan nan 25 20 17 15 18 24 28
nan nan nan nan nan nan nan nan nan nan nan nan nan nan nan nan nan nan nan nan nan nan nan nan nan nan nan nan nan nan nan nan nan nan nan nan nan nan 31 22 24 20 23 28 26
nan nan nan nan nan nan nan nan nan nan nan nan nan nan nan nan nan nan nan nan nan nan nan nan nan nan nan nan nan nan nan nan nan nan nan nan nan nan 21 20 19 19 22 21 23
Wind_Direction
nan nan nan nan nan nan nan nan nan nan nan nan nan nan nan nan nan nan nan nan nan nan nan nan 321 322 nan nan nan nan nan nan nan nan 198 152 nan nan nan nan nan nan nan nan nan
nan nan nan nan nan nan nan nan nan nan nan nan nan nan nan nan nan nan nan nan nan nan nan nan 293 nan nan 275 308 nan nan nan nan nan nan nan 89 nan nan nan nan nan nan nan nan
nan nan nan nan nan nan nan nan nan nan nan nan nan nan nan nan nan nan nan nan nan nan nan nan nan nan nan 302 331 nan nan nan nan nan nan nan nan nan nan nan nan nan nan nan nan
nan nan nan nan nan nan nan nan nan nan nan nan nan nan nan nan nan nan nan nan nan nan nan nan nan nan 253 341 320 314 nan nan nan nan nan 184 nan nan nan nan nan nan nan nan nan
nan nan nan nan nan nan nan nan nan nan nan nan nan nan nan nan nan nan nan nan nan nan nan nan nan nan 329 228 286 nan nan nan nan nan nan 98 107 35 nan nan nan nan nan nan nan
nan nan nan nan nan nan nan nan nan nan nan nan nan nan nan nan nan nan nan nan nan nan nan nan nan nan 271 231 222 318 nan nan nan nan 23 240 193 nan nan nan nan nan nan nan nan
nan nan nan nan nan nan nan nan nan nan nan nan nan nan nan nan nan nan nan nan nan nan nan nan nan nan 316 290 218 324 295 37 35 nan 32 nan nan nan 327 nan nan nan nan nan 23
nan nan nan nan nan nan nan nan nan nan nan nan nan nan nan nan nan nan nan nan nan nan nan nan nan nan 275 257 203 135 131 37 38 12 nan nan nan 32 23 nan nan nan nan 24 34
nan nan nan nan nan nan nan nan nan nan nan nan nan nan nan nan nan nan nan nan nan nan nan nan nan 248 228 231 nan 168 nan nan 47 53 nan nan nan nan 6 1 nan nan nan 21 33
nan nan nan nan nan nan nan nan nan nan nan nan nan nan nan nan nan nan nan nan nan nan nan nan nan 240 208 nan nan nan nan nan nan 73 53 nan nan nan 38 321 3 nan nan 18 15
nan nan nan nan nan nan nan nan nan nan nan nan nan nan nan nan nan nan nan nan nan nan nan nan nan nan 258 246 176 201 nan nan 152 333 342 nan nan nan nan nan 344 28 nan 41 8
nan nan nan nan nan nan nan nan nan nan nan nan nan nan nan nan nan nan nan nan nan nan nan nan nan nan nan nan nan nan nan nan nan 336 330 10 46 nan nan nan 349 344 67 nan 57
nan nan nan nan nan nan nan nan nan nan nan nan nan nan nan nan nan nan nan nan nan nan nan nan nan nan nan nan nan nan 231 235 nan 268 264 221 127 84 82 nan nan 355 6 109 nan
nan nan nan nan nan nan nan nan nan nan nan nan nan nan nan nan nan nan nan nan nan nan nan nan nan nan nan nan nan nan nan 266 253 238 nan 224 nan 184 200 208 111 nan nan 167 157
nan nan nan nan nan nan nan nan nan nan nan nan nan nan nan nan nan nan nan nan nan nan nan nan nan nan nan nan nan nan nan 316 262 234 207 194 218 198 225 236 240 nan nan nan 283
nan nan nan nan nan nan nan nan nan nan nan nan nan nan nan nan nan nan nan nan nan nan nan nan nan nan nan nan nan nan 248 237 247 243 nan nan 248 nan 239 235 248 272 nan nan nan
nan nan nan nan nan nan nan nan nan nan nan nan nan nan nan nan nan nan nan nan nan nan nan nan nan nan nan nan nan nan nan nan 242 253 nan nan 258 230 236 233 251 238 301 nan nan
nan nan nan nan nan nan nan nan nan nan nan nan nan nan nan nan nan nan nan nan nan nan nan nan nan nan nan nan nan nan nan nan nan nan nan nan nan 248 260 235 256 230 268 nan nan
nan nan nan nan nan nan nan nan nan nan nan nan nan nan nan nan nan nan nan nan nan nan nan nan nan nan nan nan nan nan nan nan nan nan nan nan 253 245 268 276 275 249 249 262 nan
nan nan nan nan nan nan nan nan nan nan nan nan nan nan nan nan nan nan nan nan nan nan nan nan nan nan nan nan nan nan nan nan nan nan nan nan nan nan nan nan nan nan 266 261 247
nan nan nan nan nan nan nan nan nan nan nan nan nan nan nan nan nan nan nan nan nan nan nan nan nan nan nan nan nan nan nan nan nan nan nan nan nan nan nan nan nan nan nan 250 258
nan nan nan nan nan nan nan nan nan nan nan nan nan nan nan nan nan nan nan nan nan nan nan nan nan nan nan nan nan nan nan nan nan nan nan nan nan nan nan nan nan 293 280 240 272
nan nan nan nan nan nan nan nan nan nan nan nan nan nan nan nan nan nan nan nan nan nan nan nan nan nan nan nan nan nan nan nan nan nan nan nan nan nan 271 nan 272 307 267 267 249
nan nan nan nan nan nan nan nan nan nan nan nan nan nan nan nan nan nan nan nan nan nan nan nan nan nan nan nan nan nan nan nan nan nan nan nan nan nan 269 269 264 291 265 271 254
nan nan nan nan nan nan nan nan nan nan nan nan nan nan nan nan nan nan nan nan nan 283 nan nan nan nan nan nan nan nan nan nan nan nan nan nan nan nan 274 271 248 268 269 262 286
nan nan nan nan nan nan nan nan nan nan nan nan nan nan nan nan nan nan nan nan nan nan nan nan nan nan nan nan nan nan nan nan nan nan nan nan nan nan 273 260 244 262 268 250 272
nan nan nan nan nan nan nan nan nan nan nan nan nan nan nan nan nan nan nan nan nan nan nan nan nan nan nan nan nan nan nan nan nan nan nan nan nan nan 280 254 259 267 261 256 263